Hlavní strana
METAR-TAF:

METAR-TAF

Letiště :

LaGrange-Callaway Airport

LaGrange, Georgie, Spojené státy americké

zeměpisná šířka: 33-00-32N, zeměpisná délka: 085-04-21W, výška: 211 m

Aktuální stav počasí

Zpráva byla vytvořena před 29 minutami, v 17:55 UTC
Severní vítr 6 kt
Teplota 8°C
Vlhkost vzduchu 93%
Tlak 1020 hPa
Viditelnost: 4.8 km
Zataženo ve výšce 400 ft
silné mrholení

METAR: KLGC 151755Z AUTO 01006KT 3SM +DZ OVC004 08/07 A3011 RMK AO2 T00750070 10075 20058

Čas: 13:24 (18:24 UTC)


TAF: chybějící

Stav a předpovědi počasí z více než 4 000 letišť (zprávy METAR a TAF).

Červené a žluté tečky na mapě představují dostupné meteorologické stanice.

Když kurzor umístíte na tečku, zobrazí se název stanice.

Pak kliknutím zobrazíte stav a předpověď počasí.

Chcete-li změnit mapu, kliknutím na zelené tlačítko se znaménkem +mapu přiblížíte, kliknutím na zelené tlačítko se znaménkem – mapu oddálíte a kliknutím na zelené šipky přejdete na sousední mapy.


METAR-TAF: